Location: Newark
(44.6768°N, 22.5302°E)
Time: 22:11:48
(UTC+00:00)

CAS-6 - Pass Details

Date: 02 July 2022
Orbit: 613 x 634 km, 97.9° (Epoch: 16 August)

Event Time Altitude Azimuth Distance (km) Brightness Sun altitude
Exits shadow 20:20:20 27° 133° (SE) 1,199 ? -15.8°
Maximum altitude 20:22:23 50° 72° (ENE) 799 ? -16.0°
Drops below altitude 10° 20:26:35 10° 357° (N) 2,002 ? -16.3°
Sets 20:28:49 0° 353° (N) 2,909 ? -16.5°
